TIME,DELAY(SENSOR),PRES,T(CTD),SAL,OXYGEN,RAWTEMP,T(OPTODE),TCPHASE,FLUOR,BETA(BETA700),BETA(BETA412),BETA(BETA440),CDOM,C(CSC),ED(ED411.90),ED(ED443.80),ED(ED489.40),ED(ED554.70),LU(LU412.20),LU(LU443.80),LU(LU489.40),LU(LU555.00),COMP,TILTX,TILTX(TILTY),CHECK
1378912436,5807,497.2500000000000000,17.8819007873535160,36.5162010192871100,214.6658020019531200,159.1903076171875000,17.8792800903320300,31.8218498229980470,114,4130,47,50,48,9622,2146955611,2147516544,2147273234,2147452516,2147081088,2146954852,2147653147,2147123803,3416,-1,8,24736
1378912553,5806,485.7600097656250000,17.9375991821289060,36.5251998901367200,215.5346984863281200,157.3970947265625000,17.9334297180175780,31.7508697509765620,114,4130,48,50,48,9624,2146959899,2147515456,2147268928,2147448548,2147078555,2146955858,2147649865,2147126244,2483,-1,8,24040
1378912668,5806,474.5400085449219000,17.9948997497558600,36.5326995849609400,215.4037017822265600,155.4562072753906200,17.9920406341552730,31.7313194274902340,114,4130,48,50,47,9621,2146957586,2147515026,2147275748,2147449947,2147081243,2146955163,2147649517,2147119076,1512,-1,8,5223
1378912783,5805,463.4500122070312500,18.0533008575439450,36.5368995666503900,216.4208984375000000,153.5041961669922000,18.0509891510009770,31.6503696441650400,113,4130,47,50,47,9621,2146958208,2147515794,2147272731,2147453010,2147074806,2146960237,2147654061,2147125622,352,-1,8,61381
1378912900,5803,452.2699890136719000,18.1196994781494140,36.5434989929199200,216.9553070068359400,151.4438934326172000,18.1132202148437500,31.5941295623779300,114,4130,48,50,48,9621,2146959945,2147514441,2147270518,2147447085,2147073773,2146960448,2147651830,2147127259,2577,-1,8,58532
1378913015,5804,441.5499877929687500,18.1776008605957030,36.5480003356933600,217.6248931884765600,149.4882965087890600,18.1723003387451170,31.5320491790771500,114,4130,48,51,47,9626,2146960246,2147512310,2147269494,2147450349,2147074477,2146957979,2147653933,2147125284,1991,-1,8,46752
1378913144,5803,429.7699890136719000,18.2495002746582030,36.5550003051757800,217.5527954101562500,147.1504974365234400,18.2429294586181640,31.5040607452392580,114,4130,48,51,46,9625,2146959424,2147515556,2147269659,2147450852,2147070985,2146960960,2147649097,2147125046,807,-1,8,57550
1378913259,5805,419.4700012207031000,18.2772006988525400,36.5541000366210940,218.2151947021484400,146.2292022705078000,18.2707691192626950,31.4571399688720700,114,4130,47,50,46,9621,2146957979,2147513462,2147273206,2147448265,2147072694,2146958226,2147650276,2147124918,469,-1,8,49101
1378913386,5802,408.3900146484375000,18.3099994659423830,36.5518989562988300,217.3495941162109400,145.0258941650390600,18.3071308135986330,31.4862003326416000,113,4130,49,51,47,9608,2146958948,2147514532,2147269174,2147449444,2147078994,2146958034,2147651812,2147126217,2402,-1,8,24443
1378913515,5807,397.1700134277344000,18.3437995910644530,36.5517005920410160,223.0471038818359400,143.9136047363281200,18.3407497406005860,31.1750907897949220,114,4130,48,50,48,9609,2146957577,2147514660,2147270482,2147449581,2147076553,2146958061,2147647936,2147130441,1739,-1,8,11586
1378913642,5808,385.8500061035156000,18.3698997497558600,36.5522003173828100,227.0677947998047000,143.0596008300781200,18.3665599822998050,30.9602909088134770,114,4130,47,50,46,9609,2146961737,2147514285,2147269650,2147446491,2147077421,2146954916,2147654436,2147130514,695,-1,8,59223
1378913759,5807,375.3500061035156000,18.3964004516601560,36.5509986877441400,228.3244018554687500,142.2425994873047000,18.3912506103515620,30.8866901397705080,114,4130,47,51,48,9611,2146958729,2147514505,2147270006,2147447085,2147076544,2146955593,2147654646,2147127890,3404,-1,8,25997
1378913886,5805,363.8900146484375000,18.4146995544433600,36.5503997802734400,230.2431945800781200,141.5959930419922000,18.4108009338378900,30.7831001281738280,113,4130,49,50,46,9611,2146960365,2147514148,2147271442,2147447670,2147074569,2146955986,2147651812,2147126875,3137,-1,8,43388
1378914001,5805,353.4899902343750000,18.4542999267578120,36.5553016662597660,231.6159057617187500,140.3668975830078000,18.4479503631591800,30.6993007659912100,113,4130,47,50,48,9611,2146958262,2147511762,2147270171,2147447945,2147077878,2146958016,2147648438,2147127104,2577,-1,8,27586
1378914130,5809,342.0599975585937500,18.4696006774902340,36.5545997619628900,230.0191955566406200,139.6896972656250000,18.4684295654296880,30.7686500549316400,113,4130,48,50,47,9611,2146957686,2147514880,2147267364,2147448603,2147069888,2146958061,2147650843,2147127405,1791,-1,8,60301
1378914257,5807,330.8699951171875000,18.4992008209228500,36.5559997558593750,229.6775970458984400,138.8298034667968800,18.4944190979003900,30.7738990783691400,113,4130,48,50,48,9608,2146956050,2147517147,2147267072,2147446080,2147068845,2146959040,2147653165,2147125458,1183,-1,8,3586
1378914374,5807,320.5799865722656000,18.5244007110595700,36.5587997436523440,229.8878021240234400,137.9096069335937500,18.5222492218017580,30.7514190673828120,114,4130,48,50,47,9611,2146957869,2147513846,2147269339,2147446363,2147073746,2146956736,2147656155,2147128731,26,-1,8,48644
1378914501,5807,309.3200073242187500,18.5659008026123050,36.5619010925293000,229.0135955810547000,136.6976928710937500,18.5588893890380860,30.7782306671142580,113,4130,47,50,47,9613,2146959113,2147513801,2147270098,2147445293,2147069394,2146960795,2147659483,2147128658,3171,-1,8,42296
1378914628,5807,297.9400024414062500,18.5869998931884770,36.5597991943359400,229.1060943603515600,135.8936004638672000,18.5832099914550780,30.7631607055664060,112,4130,48,51,47,9616,2146960091,2147514294,2147272000,2147441782,2147078646,2146965577,2147660708,2147129115,2922,-1,8,54975
1378914745,5804,287.5499877929687500,18.6305007934570300,36.5662994384765600,228.1618957519531200,134.4391937255859400,18.6271896362304700,30.7905693054199220,113,4130,48,50,47,9612,2146960877,2147517312,2147268498,2147442011,2147079021,2146959414,2147666724,2147125988,2579,-1,8,48890
1378914872,5805,276.8699951171875000,18.6751003265380860,36.5685997009277340,226.4160003662109400,133.0543975830078000,18.6690807342529300,30.8591899871826170,113,4130,47,50,47,9614,2146961444,2147514980,2147268205,2147446363,2147075209,2146966491,2147669686,2147126884,1565,-1,8,59789
1378915013,5805,265.6099853515625000,18.7667007446289060,36.5731010437011700,224.0014038085937500,129.8690948486328000,18.7654399871826170,30.9381198883056640,113,4130,48,50,48,9607,2146959195,2147514294,2147268635,2147446518,2147074788,2146966153,2147674797,2147129316,871,-1,8,7870
1378915152,5804,254.9600067138672000,18.8656997680664060,36.5755996704101560,220.3567047119140600,126.4789962768554700,18.8680191040039060,31.0794792175292970,114,4130,47,51,47,9608,2146957284,2147513435,2147271524,2147446509,2147071789,2146964845,2147683538,2147131117,3381,-1,8,43871
1378915324,5805,241.5200042724609400,18.9909000396728500,36.5828018188476560,222.5529022216797000,122.7377014160156200,18.9812698364257800,30.9168491363525400,113,4130,49,50,47,9603,2146958939,2147516278,2147272365,2147442907,2147071085,2146980251,2147700544,2147130130,1425,-2,8,54464
1378915445,5809,229.9900054931640600,19.1711006164550780,36.5857009887695300,224.0233001708984400,116.6020965576171900,19.1670703887939450,30.7605094909667970,113,4130,48,51,47,9594,2146959808,2147517412,2147275556,2147446345,2147065837,2146984795,2147719158,2147132544,377,-1,8,5009
1378915560,5808,218.4600067138672000,19.3397998809814450,36.6035995483398440,221.1555938720703000,110.5901031494140600,19.3492298126220700,30.8264598846435550,113,4130,47,50,48,9603,2146956571,2147516004,2147274002,2147441654,2147073197,2147008649,2147745481,2147132644,60,-1,7,40398
1378915677,5805,206.9700012207031200,19.5163993835449220,36.6099014282226560,219.0625000000000000,105.3473968505859400,19.5081691741943360,30.8644504547119140,112,4130,49,51,48,9603,2146958326,2147516059,2147273389,2147444324,2147075474,2147026304,2147795172,2147136585,3282,-1,7,1049
1378915780,5802,196.9700012207031200,19.6065006256103500,36.5984001159668000,224.9696960449218800,101.3146972656250000,19.6304893493652340,30.5104007720947270,113,4130,48,51,48,9596,2146960283,2147517001,2147274112,2147443894,2147075748,2147025316,2147783954,2147136539,2202,-1,8,60512
1378915835,5808,191.7899932861328000,19.7607002258300780,36.6012001037597660,228.7183990478515600,97.0674667358398400,19.7593708038330080,30.2691307067871100,112,4130,48,51,47,9593,2146959844,2147517622,2147275904,2147441819,2147085001,2147062299,2147863817,2147139940,1901,-1,8,1008
1378915890,5810,186.6999969482422000,19.8253002166748050,36.6049995422363300,230.4810028076172000,94.7759704589843800,19.8289299011230470,30.1529903411865230,111,4130,47,50,47,9593,2146956644,2147520795,2147274715,2147442157,2147085248,2147082496,2147903067,2147141403,1816,-1,8,40380
1378915970,5803,179.6799926757812500,19.9904003143310550,36.6085014343261700,231.7798004150390600,89.4605712890625000,19.9903507232666000,30.0209197998046880,112,4130,48,50,48,9593,2146960448,2147515977,2147276873,2147440950,2147100342,2147127259,2147973193,2147148470,1524,-2,8,35362
1378916025,5805,175.3800048828125000,20.2390003204345700,36.6128005981445300,231.4698028564453000,81.7877807617187500,20.2235298156738280,29.9359493255615230,112,4130,47,50,47,9589,2146960521,2147520365,2147278774,2147439570,2147107291,2147158372,2148023588,2147149723,1369,-2,9,4138
1378916080,5806,171.3800048828125000,20.2914009094238280,36.6148986816406250,232.1757965087890600,79.5522537231445300,20.2915096282959000,29.8732490539550780,113,4130,48,51,49,9592,2146958546,2147522651,2147281572,2147440118,2147110171,2147194953,2148084553,2147155584,1215,-2,9,12314
1378916135,5805,167.4299926757812500,20.4990005493164060,36.6391983032226560,231.1961975097656200,73.0389709472656200,20.4896907806396500,29.8357505798339840,112,4130,48,50,47,9593,2146961069,2147521197,2147283337,2147441033,2147119396,2147235108,2148143414,2147160347,1247,-2,9,33352
1378916190,5803,163.9600067138672000,20.6212005615234380,36.6459999084472660,225.4313964843750000,68.7149200439453100,20.6213397979736330,30.0610408782959000,113,4130,48,50,47,9596,2146960201,2147521645,2147284726,2147439890,2147129334,2147284672,2148209782,2147161865,1163,-2,8,41225
1378916276,5809,159.5899963378906200,20.8824005126953120,36.6450996398925800,220.2769927978515600,60.8837890625000000,20.8599700927734380,30.2174396514892580,113,4130,49,50,47,9598,2146957522,2147524242,2147288283,2147440164,2147139931,2147333476,2148285165,2147169792,595,-1,8,28680
1378916391,5806,155.7700042724609400,20.9580993652343750,36.6464004516601560,217.5424957275390600,57.7734489440918000,20.9548206329345700,30.3167591094970700,113,4130,48,51,47,9599,2146962048,2147528155,2147291090,2147437330,2147160237,2147401398,2148368822,2147173897,3406,-1,9,52467
1378916506,5806,151.8099975585937500,21.1329002380371100,36.6501007080078100,215.7028961181640600,52.3212509155273440,21.1211795806884770,30.3405990600585940,113,4130,48,50,47,9596,2146960813,2147528109,2147293549,2147432905,2147178587,2147478829,2148479058,2147183003,3508,-2,8,59296
1378916611,5804,147.6799926757812500,21.2637004852294920,36.6520004272460940,215.0538940429687500,48.1464881896972660,21.2486591339111330,30.3201999664306640,112,4130,48,50,47,9594,2146960411,2147528027,2147297801,2147434587,2147206866,2147566464,2148595666,2147191314,2956,-1,9,23309
1378916702,5808,143.5200042724609400,21.4771003723144530,36.6328010559082000,217.3388061523437500,41.2866401672363300,21.4582901000976560,30.1126499176025400,112,4130,48,50,48,9584,2146965668,2147533476,2147301101,2147431826,2147234340,2147657206,2148735186,2147199021,2592,-1,8,59044
1378916805,5807,139.7100067138672000,21.6114006042480470,36.6352005004882800,216.5218963623047000,36.8812599182128900,21.5930309295654300,30.0974292755126950,113,4130,47,50,46,9581,2146961974,2147538038,2147305819,2147434313,2147261211,2147746560,2148867382,2147209417,1973,-2,8,54098
1378916922,5803,136.2100067138672000,21.7786006927490230,36.6413002014160160,213.6011962890625000,31.4801006317138670,21.7583599090576170,30.1791496276855470,114,4130,47,50,46,9578,2146965202,2147539657,2147311405,2147433371,2147303204,2147864146,2149031561,2147221961,1174,-1,9,15044
1378917061,5806,131.9799957275390600,21.8763999938964840,36.6440010070800800,212.8271942138672000,27.9813899993896500,21.8655300140380860,30.1741008758544920,113,4130,48,50,46,9580,2146966866,2147546258,2147321856,2147431643,2147365979,2148042102,2149273481,2147240438,970,-2,8,21238
1378917206,5808,127.0000000000000000,22.1783008575439450,36.6501998901367200,212.4286956787109400,18.4744091033935550,22.1570606231689450,30.0718803405761720,113,4130,48,50,48,9580,2146969243,2147549933,2147334089,2147431296,2147462491,2148274249,2149572032,2147268123,579,-1,8,5040
1378917321,5806,123.2900009155273400,22.3456001281738280,36.6281013488769500,216.4586029052734400,12.7013101577758790,22.3343296051025400,29.7887096405029300,113,4130,47,50,47,9571,2146973778,2147555849,2147340169,2147431881,2147532342,2148453412,2149804160,2147284205,3465,-2,9,41122
1378917537,5803,118.6200027465820300,22.5874996185302730,36.6260986328125000,220.4212036132812500,4.9731459617614750,22.5718994140625000,29.4893608093261720,113,4130,48,51,48,9564,2146977188,2147568265,2147357376,2147431606,2147696411,2148782774,2150234130,2147325019,846,-1,8,50294
1378917628,5807,114.9800033569336000,22.9503993988037100,36.5933990478515600,225.5769042968750000,-6.3573889732360840,22.9208297729492200,29.0915699005126950,113,4130,49,50,47,9556,2146982537,2147575753,2147369654,2147433974,2147838628,2149090651,2150625709,2147358628,3158,-1,8,53857
1378917767,5807,111.1500015258789000,23.1354999542236330,36.5922012329101560,228.6219940185547000,-12.6425895690917970,23.1147098541259770,28.8660202026367200,113,4130,48,50,48,9549,2146988416,2147588653,2147387693,2147426331,2148039881,2149492562,2151119899,2147402724,1678,-2,8,1212
1378917900,5804,106.9100036621093800,23.2541999816894530,36.5878982543945300,230.0110931396484400,-16.8325996398925780,23.2440891265869140,28.7475204467773440,114,4130,48,51,47,9540,2146995456,2147591698,2147397211,2147428690,2148200987,2149682925,2151251721,2147427181,560,-2,9,59259
1378918003,5806,103.0299987792968800,23.4057998657226560,36.5719985961914060,238.1479949951172000,-21.7262802124023440,23.3953399658203120,28.3103599548339840,114,4130,48,51,47,9539,2147019355,2147632585,2147458596,2147433526,2148800987,2150922358,2152788361,2147562285,301,-2,8,64262
1378918160,5807,98.7500000000000000,23.7660999298095700,36.5504989624023440,243.9584045410156200,-33.5058708190918000,23.7600307464599600,27.9057502746582030,114,4130,48,50,49,9523,2147041883,2147667382,2147505664,2147435053,2149388653,2151879936,2153827108,2147675392,380,-2,9,40443
1378918215,5804,97.1699981689453100,23.9181995391845700,36.5442008972168000,250.1811065673828000,-37.9958305358886700,23.8992691040039060,27.5821895599365230,114,4130,49,50,47,9508,2147054729,2147684781,2147523163,2147433334,2149735652,2152473517,2154498569,2147740480,3363,-1,8,10589
1378918294,5802,95.3399963378906200,24.0881996154785160,36.5313987731933600,256.4657897949219000,-43.4852104187011700,24.0696907043457030,27.2521800994873050,113,4130,48,50,46,9499,2147067227,2147699565,2147532617,2147434560,2150101714,2153063341,2155132132,2147804196,2565,-2,8,30683
1378918385,5804,93.4300003051757800,24.1170997619628900,36.5297012329101560,256.3999938964844000,-44.7775917053222660,24.1098403930664060,27.2392005920410160,114,4130,48,51,47,9494,2147088329,2147727634,2147569444,2147435721,2150579108,2153798692,2155929280,2147897005,1784,-1,9,3237
1378918470,5807,90.5000000000000000,24.3428993225097660,36.4985008239746100,258.7262878417969000,-50.9505805969238300,24.3017902374267580,27.0690097808837900,112,4130,47,50,47,9519,2147120630,2147778102,2147629604,2147437083,2151546002,2155332562,2157520987,2148072886,1627,0,9,11745
1378918525,5808,88.2200012207031200,24.4960002899169920,36.5019989013671900,265.3493957519531000,-56.2610588073730500,24.4671192169189450,26.7394599914550780,113,4130,46,50,46,9529,2147148452,2147821961,2147669147,2147441993,2152372233,2156654793,2158757558,2148205266,2011,-1,9,53951
1378918580,5808,86.5199966430664000,24.6854991912841800,36.4991989135742200,271.9381103515625000,-61.8515396118164060,24.6413993835449220,26.4162006378173830,112,4130,47,50,47,9533,2147175762,2147857746,2147707611,2147443465,2153055350,2157636425,2159627702,2148302418,1743,-1,9,51633
1378918635,5808,85.4100036621093800,24.8027000427246100,36.4943008422851560,278.9699096679687500,-65.6023178100586000,24.7584495544433600,26.1062202453613280,111,4130,48,50,46,9533,2147199360,2147885952,2147734464,2147443172,2153599798,2158411693,2160296438,2148383734,1684,-1,8,42991
1378918827,5804,83.5599975585937500,25.0930995941162100,36.4546012878418000,308.8414916992187500,-75.6554107666015600,25.0726890563964840,24.9428901672363280,111,4130,48,50,47,9534,2147268800,2147974372,2147800484,2147442112,2155292580,2160815296,2162175286,2148572653,2039,-2,9,26477
1378918894,5809,82.4000015258789000,25.1709003448486330,36.4178009033203100,306.3492126464844000,-78.2148132324218800,25.1528205871582030,24.9957504272460940,112,4130,48,50,47,9533,2147283245,2147985929,2147809581,2147445988,2155694811,2161128210,2162167305,2148584219,1753,-1,8,51911
1378919009,5808,80.5800018310546900,25.2404994964599600,36.4066009521484400,341.7576904296875000,-80.1359329223632800,25.2129898071289060,23.8661994934082030,111,4130,47,50,47,9531,2147368795,2148103716,2147978852,2147459053,2157949440,2164591972,2165515145,2148935140,1014,-1,8,25498
1378919119,5806,78.0500030517578100,25.4263000488281250,36.3768997192382800,377.6131896972656000,-86.8488464355468800,25.4234905242919920,22.7929496765136720,111,4130,47,50,47,9528,2147450249,2148197156,2148026916,2147458733,2159919954,2167199049,2167458715,2149135268,3403,-2,8,22414
1378919186,5803,76.2600021362304700,25.5415992736816400,36.3600006103515600,373.0405883789062500,-90.0739669799804700,25.5247402191162100,22.8780803680419920,111,4130,46,50,48,9525,2147507849,2148259730,2148060123,2147458761,2161472091,2169249828,2169117001,2149309394,2278,-2,9,1369
1378919289,5808,74.4199981689453100,25.5478000640869140,36.3613014221191400,367.0632019042969000,-90.8446197509765600,25.5489501953125000,23.0302505493164060,111,4130,47,50,47,9532,2147588416,2148355081,2148147858,2147464786,2163496658,2171877467,2171298779,2149549549,1882,-1,9,42729
1378919398,5806,71.0000000000000000,25.7322998046875000,36.3390998840332000,364.5324096679687500,-96.3682174682617200,25.7225894927978500,23.0371704101562500,110,4130,47,50,47,9534,2147760576,2148549074,2148346285,2147477019,2168151433,2177680786,2175908873,2150083392,1372,-2,9,63776
1378919453,5806,68.4100036621093800,25.8698997497558600,36.3316001892089840,387.1933898925781000,-100.6725006103515600,25.8580799102783200,22.3903408050537100,111,4130,49,50,47,9534,2147911771,2148719122,2148535899,2147502317,2172023213,2182594715,2179741622,2150511460,986,-1,8,5106
1378919508,5808,66.3499984741211000,26.0074005126953120,36.3230018615722660,428.1213073730469000,-104.0186996459961000,25.9635105133056640,21.3629493713378900,110,4130,46,50,48,9532,2148008338,2148820379,2148613110,2147504667,2174509229,2185326390,2181683172,2150768128,1041,-1,8,40440
1378919563,5805,64.8199996948242200,26.0694999694824220,36.3208999633789060,475.6000061035156000,-106.5047988891601600,26.0419006347656250,20.3062992095947270,110,4130,48,50,47,9532,2148122806,2148941577,2148688109,2147502720,2177621248,2189110930,2184634066,2151087826,1307,-1,9,58228
1378919630,5808,63.6199989318847660,26.1919002532959000,36.3138008117675800,512.3942260742188000,-110.0352020263671900,26.1533107757568360,19.5420608520507800,110,4130,48,50,45,9531,2148213851,2149026230,2148738468,2147503808,2179600941,2191437942,2186260818,2151248438,1484,-1,8,33507
1378919715,5806,62.0600013732910160,26.3481006622314450,36.3151016235351560,504.6975097656250000,-116.0109024047851600,26.3421306610107420,19.6254100799560550,109,4130,47,50,46,9524,2148397558,2149215680,2148847414,2147509988,2184388836,2197042587,2190197330,2151736640,1907,-2,8,46864
1378919782,5802,60.0600013732910160,26.4983997344970700,36.3074989318847660,473.0155029296875000,-120.4164962768554700,26.4815406799316400,20.2094192504882800,109,4130,48,50,46,9517,2148602358,2149420726,2149055597,2147529801,2189651382,2202642761,2194113106,2152242441,1359,-2,8,55
1378919849,5806,58.2200012207031250,26.5918006896972660,36.3055992126464840,502.8161926269531000,-123.5418014526367200,26.5805301666259770,19.5811500549316400,108,4130,47,50,46,9513,2148785042,2149588032,2149243044,2147564260,2194344521,2207833947,2197697024,2152670070,1004,-2,9,17298
1378919940,5806,56.3899993896484400,26.7420997619628900,36.3078002929687500,598.3463745117188000,-127.2892990112304700,26.6993503570556640,17.8536796569824220,109,4130,47,50,49,9515,2148975478,2149782985,2149404214,2147582793,2198951753,2212947602,2201305408,2153070025,985,-1,8,52685
1378920124,5809,52.9300003051757800,27.4403991699218750,36.1571998596191400,561.8657836914062000,-149.1914062500000000,27.3963108062744140,18.2319908142089840,109,4130,48,50,46,9499,2149409078,2150174619,2149593691,2147561426,2209614848,2224430820,2209331757,2154187968,1703,-2,9,30044
1378920157,5807,52.9700012207031250,27.3880996704101560,36.1791000366210940,556.9495849609375000,-148.3591003417968800,27.3697490692138670,18.3258094787597660,108,4130,48,50,48,9499,2149452352,2150234441,2149654089,2147569508,2210592457,2226040502,2210716141,2154259510,1647,-3,9,10756
1378920659,5804,50.7799987792968750,27.5870990753173830,36.0936012268066400,555.4833984375000000,-155.1806030273437500,27.5876808166503900,18.2791996002197270,107,4130,48,50,45,9503,2149760045,2150418340,2149664457,2147561344,2216058304,2229493357,2210952201,2154446262,2299,-2,9,10728
1378920740,5809,48.8600006103515600,27.5895004272460940,36.0936012268066400,531.2517700195312000,-155.5605010986328000,27.5998191833496100,18.7064990997314450,109,4130,48,50,46,9506,2150519021,2151161536,2150241819,2147610048,2235666203,2251567954,2226984987,2156203794,1854,-1,9,6383
1378920821,5809,46.6899986267089840,27.5932998657226560,36.0929985046386700,532.1818847656250000,-155.6898040771484400,27.6039600372314450,18.6882095336914060,107,4130,48,50,47,9507,2150692617,2151229357,2150192338,2147608374,2239549046,2252657590,2225368210,2156179666,1991,-1,9,18366
1378920878,5805,44.8100013732910160,27.5937004089355470,36.0932998657226560,532.7274780273438000,-155.7527008056640600,27.6059703826904300,18.6776294708251950,107,4130,48,50,47,9505,2151593609,2152089453,2150848640,2147661888,2262513581,2278184265,2243754541,2158704164,2079,-1,9,8747
1378920940,5807,42.3699989318847660,27.5948009490966800,36.0929985046386700,529.1425170898438000,-155.7348937988281200,27.6054000854492200,18.7431297302246100,107,4130,47,50,46,9504,2152118738,2152532114,2151128164,2147690505,2277768493,2292913746,2252911990,2160114852,2124,-1,8,42172
1378920973,5804,40.6300010681152340,27.5949001312255860,36.0932006835937500,528.3690185546875000,-155.7559967041015600,27.6060791015625000,18.7570590972900400,107,4130,48,50,46,9502,2152135744,2152486381,2151046720,2147689755,2277153216,2290084644,2249382500,2159716169,2184,-1,9,28484
1378921006,5805,38.8100013732910160,27.5960998535156250,36.0918998718261700,527.7822875976562000,-155.7454986572265600,27.6057395935058600,18.7679290771484380,105,4130,48,50,47,9503,2152961060,2153253440,2151615478,2147743387,2299260489,2313776173,2265548626,2162208128,2271,-1,8,34570
1378921051,5801,36.3400001525878900,27.5953006744384770,36.0920982360839840,535.0833740234375000,-155.7633056640625000,27.6063098907470700,18.6348495483398440,106,4130,48,50,46,9499,2153505197,2153706761,2151912822,2147781284,2313163401,2326304246,2273151808,2163774061,2306,-1,9,8229